Regional Weather Roundup
Issued by NWS

Home | Current Version | Previous Version | Graphics & Text | Print | Product List | Glossary On
Versions: 1 2 3 4 5 6 7 8 9 10 11 12 13 14 15 16 17 18 19 20 21 22 23 24 25 26 27 28 29 30 31 32 33 34 35 36 37 38 39 40 41 42 43 44 45 46 47 48 49 50
000
ASUS43 KIND 290759
RWRIN

WEATHER ROUNDUP FOR INDIANA
NATIONAL WEATHER SERVICE INDIANAPOLIS IN
400 AM EDT THU SEP 29 2016

NOTE: "FAIR" INDICATES FEW OR NO CLOUDS BELOW 12,000 FEET WITH NO
SIGNIFICANT WEATHER AND/OR OBSTRUCTIONS TO VISIBILITY.

* - STATION DOES NOT REPORT WEATHER SUCH AS PRECIPITATION OR FOG.

+ - STATION NOT QUALITY CONTROLLED BY THE NATIONAL WEATHER SERVICE.
    USE DATA WITH CAUTION...ESPECIALLY DEWPOINT AND RELATIVE
    HUMIDITY OBSERVATIONS.

INZ001>003-010>013-019-020-290900-
NORTHWEST INDIANA

CITY           SKY/WX    TMP DP  RH WIND       PRES   REMARKS

$$

LMZ046-743>745-290900-
SOUTHERN LAKE MICHIGAN

STATION/POSITION TIME  TEMP    WIND        PRES    WAVE
                       AIR SEA DIR/SP/G            HT
                 (UTC) (F)     (DEG/KT/KT) (MB)    (FT)
BURNS HARBOR     0740   62      50/ 21/ 27 1016.9R
MICHIGAN CITY    0730   60      30/ 26/ 27   N/A
5NW MICH CITY    0750   62 66   50/ 19/ 25   N/A     7

$$

INZ004-005-014>016-021>024-290900-
NORTH CENTRAL INDIANA

CITY           SKY/WX    TMP DP  RH WIND       PRES   REMARKS
GOSHEN         CLOUDY    57  54  89 NE8       30.00R
SOUTH BEND     LGT RAIN  56  55  97 NE13      30.03R

$$

INZ006>009-017-018-025>027-290900-
NORTHEAST INDIANA

CITY           SKY/WX    TMP DP  RH WIND       PRES   REMARKS
ANGOLA *+        N/A     55  45  67 NE7       29.99S
FORT WAYNE     CLOUDY    56  54  93 E7        29.98S
KENDALLVILLE + CLOUDY    56  55  99 NE5       29.99R

$$

INZ028-029-035-036-043>045-051>053-290900-
WEST CENTRAL INDIANA

CITY           SKY/WX    TMP DP  RH WIND       PRES   REMARKS
CRAWFORDSVL +  HVY RAIN  53  53 100 NW6       29.98R
GREENCASTLE +  CLOUDY    54  54 100 CALM      29.99S
LAFAYETTE      NOT AVBL
TERRE HAUTE    CLOUDY    55  51  86 NW5       29.99S

$$

INZ030>032-037>040-046>048-054>057-064-065-290900-
CENTRAL INDIANA

CITY           SKY/WX    TMP DP  RH WIND       PRES   REMARKS
INDIANAPOLIS   CLOUDY    56  51  84 N3        29.97S
-EAGLE CREEK   CLOUDY    56  51  84 CALM      29.97S
KOKOMO *+      CLOUDY    55  54  94 NE3       29.98S
MT COMFORT *+  CLOUDY    54  52  94 CALM      29.98R
SHELBYVILLE    CLOUDY    56  52  86 NW3       29.96F

$$

INZ033-034-041-042-049-050-058-059-290900-
EAST CENTRAL INDIANA

CITY           SKY/WX    TMP DP  RH WIND       PRES   REMARKS
MUNCIE         CLOUDY    55  52  89 N5        29.97R

$$

INZ060-061-067>069-081>083-085>088-290900-
SOUTHWEST INDIANA

CITY           SKY/WX    TMP DP  RH WIND       PRES   REMARKS
EVANSVILLE     CLEAR     53  48  83 W5        30.02F
HUNTINGBURG *+   N/A     50  45  81 W5        30.01S

$$

INZ062-063-066-070>080-084-089>092-290900-
SOUTH CENTRAL AND SOUTHEAST INDIANA

CITY           SKY/WX    TMP DP  RH WIND       PRES   REMARKS
BLOOMINGTON    LGT RAIN  54  51  90 CALM      29.99S
MADISON *+     CLOUDY    54  50  87 CALM      30.00S
SEYMOUR +      CLOUDY    55  52  88 CALM      29.99R

$$





USA.gov is the U.S. government's official web portal to all federal, state and local government web resources and services.